Change the Weather History Date:

Sunday, May 5, 2013

  Actual Average Record
Temperature  
Mean Temperature 48 °F 50 °F  
Max Temperature 57 °F 63 °F 82 °F (1966)
Min Temperature 38 °F 37 °F 18 °F (1912)
Degree Days  
Heating Degree Days 17 15  
Month to date heating degree days 120 79  
Since 1 July heating degree days 7180 7333  
Cooling Degree Days 0 0  
Month to date cooling degree days 0 0  
Year to date cooling degree days 0 0  
Moisture  
Dew Point 31 °F    
Average Humidity 60    
Maximum Humidity 85    
Minimum Humidity 35    
Precipitation  
Precipitation T in 0.08 in 1.45 in (2007)
Month to date precipitation 0.54 0.38  
Year to date precipitation 6.08 4.40  
Snow  
Snow 0.00 in 0.30 in - ()
Month to date snowfall 10.5 1.7  
Since 1 July snowfall 111.1 88.2  
Snow Depth 0.00 in    
Sea Level Pressure  
Sea Level Pressure 30.08 in    
Wind  
Wind Speed 5 mph (WNW)    
Max Wind Speed 14 mph    
Max Gust Speed 16 mph    
Visibility 10 miles    
Events      
T = Trace of Precipitation, MM = Missing Value Source: NWS Daily Summary

Daily Weather History Graph

Daily Weather History Graph

Search for Another Location

Airport or City:

Trip Planner

Search our weather history database for the weather conditions in past years. The results will help you decide how hot, cold, wet, or windy it might be!

Date:

Astronomy

May. 05, 2013 Rise Set
Actual Time 6:03 AM MDT 8:20 PM MDT
Civil Twilight 5:32 AM MDT 8:51 PM MDT
Nautical Twilight 4:53 AM MDT 9:30 PM MDT
Astronomical Twilight 4:10 AM MDT 10:14 PM MDT
Moon 3:41 AM MDT (5/5) 4:17 PM MDT (5/5)
Length of Visible Light 15h 19m
Length of Day
14h 16m
Waning Crescent, 17% of the Moon is Illuminated
May 5
Waning Crescent
May 9
New
May 17
First Quarter
May 24
Full
May 31
Last Quarter

Hourly Weather History & Observations

Time (MDT) Temp. Windchill Dew Point Humidity Pressure Visibility Wind Dir Wind Speed Gust Speed Precip Events Conditions
12:53 AM 44.1 °F - 36.0 °F 73% 30.17 in 10.0 mi Calm Calm - N/A   Overcast
1:53 AM 43.0 °F 38.8 °F 34.0 °F 71% 30.14 in 10.0 mi West 6.9 mph - 0.00 in   Overcast
2:53 AM 42.1 °F 40.2 °F 35.1 °F 76% 30.13 in 10.0 mi NW 3.5 mph - N/A   Overcast
3:53 AM 41.0 °F 38.0 °F 35.1 °F 79% 30.12 in 10.0 mi NW 4.6 mph - N/A   Overcast
4:53 AM 39.0 °F 36.8 °F 33.1 °F 79% 30.12 in 10.0 mi WNW 3.5 mph - N/A   Partly Cloudy
5:53 AM 37.9 °F 34.4 °F 32.0 °F 79% 30.13 in 10.0 mi WNW 4.6 mph - N/A   Scattered Clouds
6:53 AM 37.9 °F 32.1 °F 32.0 °F 79% 30.15 in 10.0 mi WSW 8.1 mph - N/A   Clear
7:53 AM 39.0 °F - 35.1 °F 86% 30.17 in 9.0 mi Calm Calm - N/A   Clear
8:53 AM 44.1 °F - 34.0 °F 68% 30.16 in 10.0 mi Calm Calm - N/A   Clear
9:53 AM 46.9 °F - 30.0 °F 52% 30.14 in 10.0 mi North 8.1 mph - N/A   Clear
10:53 AM 48.9 °F - 28.9 °F 46% 30.12 in 10.0 mi Variable 3.5 mph - N/A   Clear
11:53 AM 52.0 °F - 28.0 °F 40% 30.10 in 10.0 mi Calm Calm - N/A   Partly Cloudy
12:53 PM 55.0 °F - 28.9 °F 37% 30.06 in 10.0 mi Variable 3.5 mph - N/A   Clear
1:53 PM 54.0 °F - 27.0 °F 35% 30.04 in 10.0 mi Variable 3.5 mph - N/A   Clear
2:53 PM 55.0 °F - 28.0 °F 35% 30.03 in 10.0 mi WNW 6.9 mph - N/A   Clear
3:53 PM 55.9 °F - 28.0 °F 34% 30.01 in 10.0 mi WNW 4.6 mph - N/A   Clear
4:53 PM 55.9 °F - 28.0 °F 34% 30.01 in 10.0 mi West 4.6 mph - N/A   Clear
5:53 PM 55.9 °F - 28.9 °F 36% 30.00 in 10.0 mi NNW 9.2 mph - N/A   Clear
6:53 PM 55.0 °F - 30.9 °F 40% 30.00 in 10.0 mi NW 11.5 mph - N/A   Scattered Clouds
7:53 PM 54.0 °F - 32.0 °F 43% 30.00 in 10.0 mi NW 6.9 mph - N/A   Scattered Clouds
8:53 PM 51.1 °F - 32.0 °F 48% 30.01 in 10.0 mi NW 5.8 mph - N/A   Mostly Cloudy
9:53 PM 46.9 °F - 30.9 °F 54% 30.03 in 10.0 mi West 5.8 mph - N/A   Clear
10:53 PM 48.0 °F - 30.0 °F 50% 30.01 in 10.0 mi West 9.2 mph - N/A   Clear
11:53 PM 45.0 °F 39.7 °F 28.9 °F 53% 30.00 in 10.0 mi WSW 10.4 mph - N/A   Clear